IBS15ZT LEMD-GCXO

Flight info

Callsign IBS15ZT
Flight time N/A
Altitude 31000
Route CCS DCT ELVAR/N0468F390 DCT BAROK UN873 SAMAR
Aircraft A346/H-SDE2E3FGHIJ3J4J5M1RWXY/LB1D1

Departure

Time N/A
Airport Adolfo Suárez Madrid–Barajas Airport (LEMD)

Arrival

Time 2026-05-06 09:52
Airport Tenerife Norte-Ciudad de La Laguna Airport (GCXO)
Time Latitude Longitude Altitude Speed Heading
2026-05-06 08:22 36.67222 -9.44093 39049 ft 440 kts 217°
2026-05-06 08:23 36.62125 -9.48344 39046 ft 442 kts 217°
2026-05-06 08:23 36.57007 -9.52606 39048 ft 442 kts 217°
2026-05-06 08:24 36.51900 -9.56850 39049 ft 441 kts 217°
2026-05-06 08:24 36.46782 -9.61097 39050 ft 441 kts 217°
2026-05-06 08:25 36.41673 -9.65331 39049 ft 441 kts 216°
2026-05-06 08:25 36.36561 -9.69559 39055 ft 441 kts 216°
2026-05-06 08:26 36.31491 -9.73746 39043 ft 439 kts 217°
2026-05-06 08:26 36.26400 -9.77945 39052 ft 439 kts 217°
2026-05-06 08:27 36.21309 -9.82137 39057 ft 439 kts 216°
2026-05-06 08:27 36.16216 -9.86328 39051 ft 441 kts 216°
2026-05-06 08:28 36.11092 -9.90533 39060 ft 442 kts 216°
2026-05-06 08:28 36.05958 -9.94738 39058 ft 441 kts 216°
2026-05-06 08:29 36.00848 -9.98918 39057 ft 440 kts 216°
2026-05-06 08:29 35.95807 -10.03145 39058 ft 439 kts 219°
2026-05-06 08:30 35.90919 -10.07688 39059 ft 439 kts 219°
2026-05-06 08:30 35.86038 -10.12220 39055 ft 439 kts 219°
2026-05-06 08:31 35.81155 -10.16748 39047 ft 439 kts 219°
2026-05-06 08:31 35.76298 -10.21244 39055 ft 436 kts 219°
2026-05-06 08:32 35.71405 -10.25772 39058 ft 440 kts 219°
2026-05-06 08:32 35.66500 -10.30298 39065 ft 441 kts 219°
2026-05-06 08:33 35.61592 -10.34821 39067 ft 441 kts 219°
2026-05-06 08:33 35.56674 -10.39347 39065 ft 441 kts 219°
2026-05-06 08:34 35.49301 -10.46117 39068 ft 441 kts 219°
2026-05-06 08:35 35.44387 -10.50622 39068 ft 441 kts 219°
2026-05-06 08:35 35.39470 -10.55122 39068 ft 441 kts 219°
2026-05-06 08:36 35.34570 -10.59599 39066 ft 443 kts 219°
2026-05-06 08:36 35.29619 -10.64117 39070 ft 444 kts 219°
2026-05-06 08:37 35.24660 -10.68633 39060 ft 442 kts 219°
2026-05-06 08:37 35.19726 -10.73120 39069 ft 442 kts 219°
2026-05-06 08:38 35.14793 -10.77600 39069 ft 442 kts 219°
2026-05-06 08:38 35.09857 -10.82075 39072 ft 442 kts 219°
2026-05-06 08:39 35.04911 -10.86553 39071 ft 442 kts 219°
2026-05-06 08:39 34.99975 -10.91014 39066 ft 441 kts 219°
2026-05-06 08:40 34.95891 -10.94697 39071 ft 439 kts 219°
2026-05-06 08:40 34.90949 -10.99156 39077 ft 443 kts 219°
2026-05-06 08:41 34.86001 -11.03609 39079 ft 443 kts 219°
2026-05-06 08:41 34.81040 -11.08066 39079 ft 443 kts 219°
2026-05-06 08:42 34.76068 -11.12526 39082 ft 443 kts 219°
2026-05-06 08:42 34.71107 -11.16968 39078 ft 441 kts 219°
2026-05-06 08:43 34.66168 -11.21385 39083 ft 440 kts 219°
2026-05-06 08:43 34.61244 -11.25789 39085 ft 439 kts 219°
2026-05-06 08:44 34.56321 -11.30212 39082 ft 439 kts 219°
2026-05-06 08:44 34.51391 -11.34640 39082 ft 443 kts 219°
2026-05-06 08:45 34.46414 -11.39096 39087 ft 444 kts 219°
2026-05-06 08:45 34.41455 -11.43526 39078 ft 441 kts 219°
2026-05-06 08:46 34.36543 -11.47910 39083 ft 441 kts 219°
2026-05-06 08:46 34.31608 -11.52310 39084 ft 441 kts 219°
2026-05-06 08:47 34.26670 -11.56704 39081 ft 441 kts 219°
2026-05-06 08:47 34.21723 -11.61100 39085 ft 441 kts 219°
2026-05-06 08:48 34.16783 -11.65482 39066 ft 440 kts 219°
2026-05-06 08:48 34.11860 -11.69841 39079 ft 438 kts 219°
2026-05-06 08:49 34.06938 -11.74198 39085 ft 438 kts 219°
2026-05-06 08:49 34.02023 -11.78540 39091 ft 438 kts 219°
2026-05-06 08:50 33.97110 -11.82874 39088 ft 438 kts 219°
2026-05-06 08:50 33.92191 -11.87206 39088 ft 438 kts 219°
2026-05-06 08:51 33.87264 -11.91537 39088 ft 437 kts 219°
2026-05-06 08:51 33.82360 -11.95844 39088 ft 436 kts 219°
2026-05-06 08:52 33.77466 -12.00137 39091 ft 436 kts 219°
2026-05-06 08:52 33.72562 -12.04432 39090 ft 436 kts 219°
2026-05-06 08:53 33.67631 -12.08748 39094 ft 439 kts 219°
2026-05-06 08:53 33.62691 -12.13059 39093 ft 439 kts 219°
2026-05-06 08:54 33.57749 -12.17364 39084 ft 437 kts 219°
2026-05-06 08:54 33.52829 -12.21646 39091 ft 437 kts 219°
2026-05-06 08:55 33.47911 -12.25922 39093 ft 437 kts 219°
2026-05-06 08:55 33.42989 -12.30194 39093 ft 437 kts 219°
2026-05-06 08:56 33.38099 -12.34432 39098 ft 437 kts 219°
2026-05-06 08:56 33.33166 -12.38701 39098 ft 437 kts 219°
2026-05-06 08:57 33.28247 -12.42955 39092 ft 437 kts 218°
2026-05-06 08:57 33.23305 -12.47222 39091 ft 439 kts 218°
2026-05-06 08:58 33.18346 -12.51494 39091 ft 439 kts 218°
2026-05-06 08:58 33.13394 -12.55756 39099 ft 439 kts 218°
2026-05-06 08:59 33.08433 -12.60019 39099 ft 439 kts 218°
2026-05-06 08:59 33.03469 -12.64278 39081 ft 439 kts 218°
2026-05-06 09:00 32.98549 -12.68491 39094 ft 435 kts 219°
2026-05-06 09:00 32.93656 -12.72681 39101 ft 434 kts 219°
2026-05-06 09:01 32.88738 -12.76885 39100 ft 434 kts 218°
2026-05-06 09:01 32.83787 -12.81115 39101 ft 440 kts 218°
2026-05-06 09:02 32.78812 -12.85334 39101 ft 441 kts 218°
2026-05-06 09:02 32.73816 -12.89563 39101 ft 441 kts 218°
2026-05-06 09:03 32.68810 -12.93795 39101 ft 441 kts 218°
2026-05-06 09:03 32.63812 -12.98016 39103 ft 441 kts 218°
2026-05-06 09:04 32.58813 -13.02232 39101 ft 441 kts 218°
2026-05-06 09:04 32.53803 -13.06452 39104 ft 441 kts 218°
2026-05-06 09:05 32.48802 -13.10665 39144 ft 443 kts 218°
2026-05-06 09:05 32.43830 -13.14834 39089 ft 440 kts 218°
2026-05-06 09:06 32.38799 -13.19058 39112 ft 444 kts 218°
2026-05-06 09:06 32.33724 -13.23309 39096 ft 444 kts 218°
2026-05-06 09:07 32.28714 -13.27498 39107 ft 444 kts 218°
2026-05-06 09:07 32.23660 -13.31720 39111 ft 444 kts 218°
2026-05-06 09:08 32.18610 -13.35932 39096 ft 444 kts 218°
2026-05-06 09:08 32.13568 -13.40133 39096 ft 441 kts 217°
2026-05-06 09:09 32.08557 -13.44300 39105 ft 440 kts 217°
2026-05-06 09:09 32.03539 -13.48469 39106 ft 440 kts 217°
2026-05-06 09:10 31.98516 -13.52635 39106 ft 445 kts 217°
2026-05-06 09:10 31.93474 -13.56812 39103 ft 446 kts 217°
2026-05-06 09:11 31.88383 -13.61024 39106 ft 447 kts 217°
2026-05-06 09:11 31.83321 -13.65207 39100 ft 443 kts 217°
2026-05-06 09:12 31.78270 -13.69373 39101 ft 443 kts 217°
2026-05-06 09:12 31.73228 -13.73526 39101 ft 443 kts 217°
2026-05-06 09:13 31.68176 -13.77682 39104 ft 442 kts 217°
2026-05-06 09:13 31.63132 -13.81826 39107 ft 442 kts 217°
2026-05-06 09:14 31.58087 -13.85965 39082 ft 442 kts 217°
2026-05-06 09:14 31.53058 -13.90085 39100 ft 444 kts 217°
2026-05-06 09:15 31.47993 -13.94230 39099 ft 444 kts 217°
2026-05-06 09:15 31.42928 -13.98370 39100 ft 444 kts 217°
2026-05-06 09:16 31.37853 -14.02511 39098 ft 444 kts 217°
2026-05-06 09:16 31.32785 -14.06640 39096 ft 444 kts 217°
2026-05-06 09:17 31.27722 -14.10773 39089 ft 443 kts 217°
2026-05-06 09:17 31.22689 -14.14897 39099 ft 440 kts 218°
2026-05-06 09:18 31.17677 -14.19001 39095 ft 440 kts 218°
2026-05-06 09:18 31.12662 -14.23102 39098 ft 442 kts 217°
2026-05-06 09:19 31.07603 -14.27231 39101 ft 444 kts 217°
2026-05-06 09:19 31.02522 -14.31367 39096 ft 445 kts 217°
2026-05-06 09:20 30.97454 -14.35486 39090 ft 444 kts 217°
2026-05-06 09:20 30.92434 -14.39563 39091 ft 442 kts 217°
2026-05-06 09:21 30.87384 -14.43657 39096 ft 442 kts 217°
2026-05-06 09:21 30.82319 -14.47745 39095 ft 442 kts 217°
2026-05-06 09:22 30.77262 -14.51819 39096 ft 442 kts 217°
2026-05-06 09:22 30.72193 -14.55897 39096 ft 442 kts 217°
2026-05-06 09:23 30.67127 -14.59968 39076 ft 443 kts 217°
2026-05-06 09:23 30.62049 -14.64042 39089 ft 443 kts 217°
2026-05-06 09:24 30.56980 -14.68105 39088 ft 443 kts 217°
2026-05-06 09:24 30.51902 -14.72170 39090 ft 443 kts 217°
2026-05-06 09:25 30.46832 -14.76223 39088 ft 443 kts 217°
2026-05-06 09:25 30.41749 -14.80282 39088 ft 443 kts 217°
2026-05-06 09:26 30.36707 -14.84303 39081 ft 442 kts 217°
2026-05-06 09:26 30.31636 -14.88340 39084 ft 442 kts 217°
2026-05-06 09:27 30.26570 -14.92368 39088 ft 442 kts 217°
2026-05-06 09:27 30.22317 -14.95746 39083 ft 444 kts 217°
2026-05-06 09:27 30.19760 -14.97776 38950 ft 446 kts 217°
2026-05-06 09:28 30.17234 -14.99780 38310 ft 448 kts 217°
2026-05-06 09:28 30.14609 -15.01861 37365 ft 454 kts 217°
2026-05-06 09:28 30.12037 -15.03897 36727 ft 454 kts 217°
2026-05-06 09:28 30.09395 -15.05987 36103 ft 454 kts 217°
2026-05-06 09:29 30.06822 -15.08022 35437 ft 454 kts 217°
2026-05-06 09:29 30.04216 -15.10084 34830 ft 453 kts 217°
2026-05-06 09:29 30.01617 -15.12136 34226 ft 453 kts 217°
2026-05-06 09:29 29.99011 -15.14194 33514 ft 454 kts 217°
2026-05-06 09:30 29.96406 -15.16252 32806 ft 454 kts 217°
2026-05-06 09:30 29.93802 -15.18307 32123 ft 453 kts 217°
2026-05-06 09:30 29.91196 -15.20363 31427 ft 454 kts 216°
2026-05-06 09:30 29.88583 -15.22423 30727 ft 455 kts 216°
2026-05-06 09:31 29.85964 -15.24484 30001 ft 457 kts 216°
2026-05-06 09:31 29.83329 -15.26556 29173 ft 458 kts 216°
2026-05-06 09:31 29.80696 -15.28622 28425 ft 458 kts 216°
2026-05-06 09:31 29.78061 -15.30689 27744 ft 457 kts 216°
2026-05-06 09:32 29.75441 -15.32743 27318 ft 453 kts 216°
2026-05-06 09:32 29.72848 -15.34775 26858 ft 449 kts 216°
2026-05-06 09:32 29.70270 -15.36796 26409 ft 446 kts 216°
2026-05-06 09:32 29.67716 -15.38797 25942 ft 442 kts 216°
2026-05-06 09:33 29.65215 -15.40755 25479 ft 438 kts 216°
2026-05-06 09:33 29.62671 -15.42745 25018 ft 434 kts 216°
2026-05-06 09:33 29.60216 -15.44664 24570 ft 431 kts 216°
2026-05-06 09:33 29.57743 -15.46597 24102 ft 427 kts 217°
2026-05-06 09:34 29.55295 -15.48509 23659 ft 424 kts 217°
2026-05-06 09:34 29.52867 -15.50405 23125 ft 420 kts 217°
2026-05-06 09:34 29.50465 -15.52279 22650 ft 415 kts 217°
2026-05-06 09:34 29.48091 -15.54130 22186 ft 410 kts 217°
2026-05-06 09:35 29.45743 -15.55959 21727 ft 406 kts 217°
2026-05-06 09:35 29.43419 -15.57770 21285 ft 401 kts 217°
2026-05-06 09:35 29.41117 -15.59560 20849 ft 397 kts 217°
2026-05-06 09:35 29.38839 -15.61333 20414 ft 394 kts 217°
2026-05-06 09:36 29.36570 -15.63084 19944 ft 392 kts 216°
2026-05-06 09:36 29.34240 -15.64699 19503 ft 390 kts 212°
2026-05-06 09:36 29.31828 -15.66140 19040 ft 390 kts 208°
2026-05-06 09:36 29.29351 -15.67404 18591 ft 389 kts 206°
2026-05-06 09:37 29.26868 -15.68615 18111 ft 387 kts 206°
2026-05-06 09:37 29.24393 -15.69816 17625 ft 385 kts 206°
2026-05-06 09:37 29.21935 -15.71008 17151 ft 382 kts 206°
2026-05-06 09:37 29.19531 -15.72174 16706 ft 379 kts 206°
2026-05-06 09:38 29.17107 -15.73350 16261 ft 377 kts 206°
2026-05-06 09:38 29.14698 -15.74518 15834 ft 374 kts 206°
2026-05-06 09:38 29.12308 -15.75677 15404 ft 372 kts 206°
2026-05-06 09:38 29.09927 -15.76831 14966 ft 370 kts 206°
2026-05-06 09:39 29.07560 -15.77978 14528 ft 369 kts 206°
2026-05-06 09:39 29.05199 -15.79122 14086 ft 368 kts 206°
2026-05-06 09:39 29.02846 -15.80261 13619 ft 366 kts 206°
2026-05-06 09:39 29.00505 -15.81394 13150 ft 364 kts 206°
2026-05-06 09:40 28.98184 -15.82517 12682 ft 361 kts 206°
2026-05-06 09:40 28.95877 -15.83632 12255 ft 359 kts 206°
2026-05-06 09:40 28.91306 -15.85840 11388 ft 354 kts 206°
2026-05-06 09:41 28.89047 -15.86930 10958 ft 352 kts 205°
2026-05-06 09:41 28.86822 -15.88003 10754 ft 340 kts 205°
2026-05-06 09:41 28.84682 -15.89032 10643 ft 326 kts 205°
2026-05-06 09:41 28.82630 -15.90018 10537 ft 314 kts 206°
2026-05-06 09:42 28.80655 -15.90968 10418 ft 302 kts 206°
2026-05-06 09:42 28.78759 -15.91880 10305 ft 290 kts 206°
2026-05-06 09:42 28.76934 -15.92758 10209 ft 279 kts 206°
2026-05-06 09:42 28.75171 -15.93607 10113 ft 272 kts 206°
2026-05-06 09:43 28.73435 -15.94444 9906 ft 271 kts 206°
2026-05-06 09:43 28.71721 -15.95271 9556 ft 272 kts 206°
2026-05-06 09:43 28.69983 -15.96109 9248 ft 271 kts 206°
2026-05-06 09:43 28.68249 -15.96943 8946 ft 269 kts 205°
2026-05-06 09:44 28.66524 -15.97772 8655 ft 268 kts 205°
2026-05-06 09:44 28.64808 -15.98596 8359 ft 267 kts 205°
2026-05-06 09:44 28.63096 -15.99417 8064 ft 267 kts 205°
2026-05-06 09:44 28.61387 -16.00238 7770 ft 266 kts 205°
2026-05-06 09:45 28.59682 -16.01056 7465 ft 266 kts 205°
2026-05-06 09:45 28.57980 -16.01872 7192 ft 265 kts 205°
2026-05-06 09:45 28.56278 -16.02688 6901 ft 265 kts 204°
2026-05-06 09:45 28.54576 -16.03503 6605 ft 266 kts 204°
2026-05-06 09:46 28.52867 -16.04325 6327 ft 265 kts 204°
2026-05-06 09:46 28.51203 -16.05114 6265 ft 253 kts 205°
2026-05-06 09:46 28.49611 -16.05874 6193 ft 242 kts 205°
2026-05-06 09:46 28.48089 -16.06600 6124 ft 232 kts 206°
2026-05-06 09:47 28.46618 -16.07291 6058 ft 226 kts 203°
2026-05-06 09:47 28.45141 -16.07929 5811 ft 228 kts 202°
2026-05-06 09:47 28.43650 -16.08568 5543 ft 229 kts 201°
2026-05-06 09:47 28.42188 -16.09275 5254 ft 229 kts 218°
2026-05-06 09:48 28.41210 -16.10636 5058 ft 220 kts 253°
2026-05-06 09:48 28.41089 -16.12359 5056 ft 222 kts 282°
2026-05-06 09:48 28.41516 -16.14031 5033 ft 224 kts 292°
2026-05-06 09:48 28.42113 -16.15667 4763 ft 224 kts 294°
2026-05-06 09:49 28.42701 -16.17292 4623 ft 218 kts 293°
2026-05-06 09:49 28.43239 -16.18873 4529 ft 211 kts 292°
2026-05-06 09:49 28.43755 -16.20443 4264 ft 213 kts 292°
2026-05-06 09:49 28.44272 -16.22029 3976 ft 214 kts 292°
2026-05-06 09:50 28.44790 -16.23612 3710 ft 210 kts 292°
2026-05-06 09:50 28.45291 -16.25141 3456 ft 202 kts 294°
2026-05-06 09:50 28.45776 -16.26611 3157 ft 195 kts 294°
2026-05-06 09:50 28.46237 -16.28009 2885 ft 182 kts 293°
2026-05-06 09:51 28.46663 -16.29311 2658 ft 168 kts 294°
2026-05-06 09:51 28.47051 -16.30506 2426 ft 154 kts 292°
2026-05-06 09:51 28.47416 -16.31606 2206 ft 146 kts 291°
2026-05-06 09:51 28.47773 -16.32692 2073 ft 145 kts 292°
2026-05-06 09:52 28.48089 -16.33629 2060 ft 98 kts 291°
2026-05-06 09:52 28.48288 -16.34220 2070 ft 74 kts 291°
2026-05-06 09:52 28.48462 -16.34740 2076 ft 67 kts 291°
2026-05-06 09:52 28.48590 -16.35117 2084 ft 36 kts 294°
2026-05-06 09:53 28.48678 -16.35278 2087 ft 13 kts 305°
2026-05-06 09:53 28.48717 -16.35317 2088 ft 1 kts 352°
2026-05-06 09:53 28.48736 -16.35318 2088 ft 3 kts 11°
2026-05-06 09:53 28.48754 -16.35291 2089 ft 6 kts 81°
2026-05-06 09:54 28.48737 -16.35224 2086 ft 11 kts 110°
2026-05-06 09:54 28.48704 -16.35125 2083 ft 14 kts 110°
2026-05-06 09:54 28.48685 -16.35044 2083 ft 8 kts 73°
2026-05-06 09:54 28.48732 -16.35009 2084 ft 8 kts 17°
2026-05-06 09:55 28.48773 -16.34993 2081 ft 4 kts 20°
2026-05-06 09:55 28.48780 -16.34990 2081 ft 0 kts 20°